Regional Weather Roundup
Issued by NWS Little Rock, AR

Home | Current Version | Previous Version | Text Only | Print | Product List | Glossary On
Versions: 1 2 3 4 5 6 7 8 9 10 11 12 13 14 15 16 17 18 19 20 21 22 23 24 25 26 27
000
ASUS44 KLZK 300905
RWRLZK

WEATHER ROUNDUP FOR ARKANSAS
NATIONAL WEATHER SERVICE LITTLE ROCK AR
400 AM CDT MON MAY 30 2016

NOTE: "FAIR" INDICATES FEW OR NO CLOUDS BELOW 12,000 FEET WITH NO
SIGNIFICANT WEATHER AND/OR OBSTRUCTIONS TO VISIBILITY.

ARZ001-003-010-029-301000-
NORTHWEST ARKANSAS

CITY           SKY/WX    TMP DP  RH WIND       PRES   REMARKS
FAYETTEVILLE   CLOUDY    60  60 100 E5        30.05F
FORT SMITH     CLOUDY    67  64  90 CALM      30.02S
HARRISON       CLEAR     63  62  97 CALM      30.07F FOG
BENTONVILLE    MOCLDY    64  61  88 SE5       30.05F
ROGERS           N/A     65  63  93 SE3       30.06
SILOAM SPGS    PTCLDY    63  55  77 E5        30.05F
HIGHFILL       MOCLDY    62  61  96 CALM      30.04F
$$

ARZ004-005-016-301000-
NORTH CENTRAL ARKANSAS

CITY           SKY/WX    TMP DP  RH WIND       PRES   REMARKS
BATESVILLE     CLOUDY    66  64  94 CALM      30.05S
FLIPPIN        MOCLDY   N/A N/A N/A NE3       30.02F VSB 3/4
MTN HOME       CLEAR     64  62  93 CALM      30.04F
$$

ARZ040-041-301000-
WEST CENTRAL ARKANSAS

CITY           SKY/WX    TMP DP  RH WIND       PRES   REMARKS
MENA           CLOUDY    63  63 100 W3        30.04F
MOUNT IDA      PTCLDY    63  61  93 CALM      30.01S FOG
$$

ARZ009-017-025-026-028-301000-
NORTHEAST ARKANSAS

CITY           SKY/WX    TMP DP  RH WIND       PRES   REMARKS
CORNING          N/A     70  70 100 CALM      30.04S
JONESBORO      CLOUDY    70  67  90 CALM      30.03S
NEWPORT        PTCLDY    71  71 100 NW5       30.05R
WALNUT RIDGE   CLEAR     70  66  88 NE6       30.03S
BLYTHEVILLE    CLOUDY    70  68  93 CALM      30.03S
$$

ARZ022-023-033-042-044-301000-
CENTRAL ARKANSAS

CITY           SKY/WX    TMP DP  RH WIND       PRES   REMARKS
LITTLE ROCK    MOCLDY    64  61  90 CALM      30.03S
N LITTLE ROCK    N/A     68  61  78 N5        30.01S
JACKSONVILLE   CLOUDY    64  63  99 NE2       30.02F
SEARCY         PTCLDY    65  65 100 NE3       30.05S
HOT SPRINGS    PTCLDY    64  62  93 E3        30.02F
RUSSELLVILLE   PTCLDY    64  62  93 CALM      30.03F
CLINTON        FAIR      63  63 100 CALM      30.06S FOG
$$

ARZ036-301000-
EAST ARKANSAS

CITY           SKY/WX    TMP DP  RH WIND       PRES   REMARKS
WEST MEMPHIS   CLOUDY    71  69  93 N3        30.02R
$$

ARZ050-053-066-070-073-301000-
SOUTHWEST ARKANSAS

CITY           SKY/WX    TMP DP  RH WIND       PRES   REMARKS
ARKADELPHIA    FAIR      66  66 100 CALM      30.03R
CAMDEN         PTCLDY    66  63  88 CALM      30.02F
TEXARKANA      PTCLDY    67  65  93 CALM      30.01S
EL DORADO      CLOUDY    65  64  97 CALM      30.03S
DE QUEEN       CLOUDY    65  65 100 CALM      29.99F
$$

ARZ056-057-069-301000-
SOUTHEAST ARKANSAS

CITY           SKY/WX    TMP DP  RH WIND       PRES   REMARKS
PINE BLUFF     CLEAR     64  62  93 E5        30.03S
STUTTGART      CLEAR     66  61  82 CALM      30.04F
MONTICELLO     CLOUDY    65  63  93 CALM      30.03F

$$






USA.gov is the U.S. government's official web portal to all federal, state and local government web resources and services.